Hourly Data Report for August 14, 2022

OTTAWA INTL A
ONTARIO
Current Station Operator: NAVCAN

45°19'00.000" N
75°40'00.000" W
114.90 m
6106001
71628
YOW

Download Data

Hourly Data (August 2022)
Hourly Data Report for August 14, 2022
TIME
LST
Temp Definition
°C
Dew Point Definition
°C
Rel Hum Definition
%
Precip. Amount Definition
mm

Wind Dir Definition
10's deg

Wind Spd Definition
km/h
Visibility Definition
km
Stn Press Definition
kPa
Hmdx Definition


Wind Chill Definition


Weather Definition


00:00 16.4 11.2 71   21 8 24.1 100.48     LegendNANA
01:00 14.8 11.3 79   22 5 24.1 100.48     Clear
02:00 14.3 11.6 83   29 4 24.1 100.46     LegendNANA
03:00 12.5 10.5 88   0 1 24.1 100.44     LegendNANA
04:00 12.3 10.4 88   36 2 24.1 100.43     Clear
05:00 10.6 10.2 98   36 1 24.1 100.44     LegendNANA
06:00 12.9 12.3 96   36 1 24.1 100.46     LegendNANA
07:00 15.7 13.3 86   19 4 24.1 100.46     Mainly Clear
08:00 18.5 14.7 78   21 5 24.1 100.45     LegendNANA
09:00 21.6 15.0 66   36 1 24.1 100.46 26   LegendNANA
10:00 23.6 11.1 45   24 7 24.1 100.44 25   Clear
11:00 24.6 8.4 35   21 6 24.1 100.41 25   LegendNANA
12:00 24.6 9.6 38   16 7 24.1 100.38 26   LegendNANA
13:00 25.7 9.4 35   36 1 24.1 100.35 27   Mainly Clear
14:00 25.8 11.0 39   27 4 24.1 100.34 28   LegendNANA
15:00 26.2 10.4 37   19 5 24.1 100.30 28   LegendNANA
16:00 25.5 10.9 39   21 12 24.1 100.29 27   Mainly Clear
17:00 25.4 10.9 40   18 10 24.1 100.29 27   LegendNANA
18:00 23.7 12.7 49   17 8 24.1 100.30 26   LegendNANA
19:00 21.4 11.6 53   17 8 24.1 100.29     Mainly Clear
20:00 18.9 10.3 57   17 9 24.1 100.32     LegendNANA
21:00 16.4 11.0 70   16 5 24.1 100.33     LegendNANA
22:00 17.2 10.1 63   20 6 24.1 100.34     Mainly Clear
23:00 16.7 12.0 74   30 5 24.1 100.35     LegendNANA

Notes on Data Quality.

Legend

  • E = Estimated
  • M = Missing
  • NA = Not Available*
  • [empty] = Indicates an unobserved value
Date modified: